Regional Weather Roundup
Issued by NWS State College, PA

Home | Current Version | Previous Version | Graphics & Text | Print | Product List | Glossary On
Versions: 1 2 3 4 5 6 7 8 9 10 11 12 13 14 15 16 17 18 19 20 21 22 23 24 25 26 27 28 29 30 31 32 33 34 35 36 37 38 39 40 41 42 43 44 45 46 47 48 49 50
000
ASUS41 KCTP 241003
RWRCTP

REGIONAL WEATHER ROUNDUP
NATIONAL WEATHER SERVICE STATE COLLEGE PA
600 AM EDT THU JUL 24 2014

Note: "fair" indicates few or no clouds below 12,000 feet with no
significant weather and/or obstructions to visibility.

* = STATION THAT DOES NOT REPORT PRECIPITATION /E.G. RAIN...SNOW...ETC/
    THUNDER OR FOG.

PAZ002>004-007>009-013>016-020>023-029>032-241100-
WESTERN PENNSYLVANIA

CITY           SKY/WX    TMP DP  RH WIND       PRES   REMARKS
ERIE           MOCLDY    64  54  69 NE6       30.02R
MEADVILLE      PTCLDY    58  55  90 N3        30.03R
FRANKLIN*      CLOUDY    57  54  88 CALM      30.03S
NEW CASTLE       N/A     57  56  97 CALM      30.03S
BEAVER COUNTY  NOT AVBL
BUTLER*        PTCLDY    55  54  94 N5        30.03R
PITTSBURGH INT PTCLDY    62  58  86 N9        30.00S
PITTSBURGH     CLOUDY    62  57  83 N7        29.99S
INDIANA*       CLOUDY    61  59  94 N5        30.04R
LATROBE        MOCLDY    63  63 100 CALM      30.00R
WASHINGTON CO* CLOUDY    61  57  88 N6        30.00R
$$

PAZ004>006-010>012-017>019-024>028-033>037-041-042-045-046-049>053-241100-
CENTRAL PENNSYLVANIA

CITY           SKY/WX    TMP DP  RH WIND       PRES   REMARKS
BRADFORD       CLEAR     55  52  89 NW3       30.02R
DUBOIS         MOCLDY    58  55  90 N6        30.00R
CLEARFIELD     CLOUDY    59  58  96 CALM      29.99S
JOHNSTOWN      CLOUDY    59  56  89 N9        29.99S
ALTOONA        CLOUDY    65  60  84 N5        29.97R
STATE COLLEGE  MOCLDY    63  55  77 NW6       29.97S
WILLIAMSPORT   MOCLDY    65  56  72 W3        29.93R
SELINSGROVE    CLOUDY    67  58  72 N5        29.94R
FT INDIANTOWN  CLOUDY    69  61  76 N12       29.91R
CAPITAL CITY   CLOUDY    70  59  68 N9        29.91R
HARRISBURG     CLOUDY    71  59  65 N7        29.90R
YORK           CLOUDY    69  62  78 NW3       29.90S
$$

PAZ038>040-043-044-047-048-054-055-060>062-067>071-241100-
EASTERN PENNSYLVANIA

CITY           SKY/WX    TMP DP  RH WIND       PRES   REMARKS
SCRANTON       CLOUDY    66  58  75 N6        29.93R
MOUNT POCONO   CLOUDY    61  57  87 N7        29.93R
ALLENTOWN      CLOUDY    68  61  78 NW5       29.89R
QUAKERTOWN*    CLOUDY    66  63  88 W5        29.89R
READING        CLOUDY    69  62  78 N6        29.89R
LANCASTER      CLOUDY    68  63  84 N7        29.90R
COATESVILLE    CLOUDY    68  66  94 N6        29.90S
POTTSTOWN      CLOUDY    67  63  87 NW6       29.90R
BLUE BELL      CLOUDY    70  64  83 CALM      29.87R
DOYLESTOWN     LGT RAIN  65  65 100 VRB6      29.86R
WILLOW GROVE   NOT AVBL
NORTH PHILA    MOCLDY    71  64  78 NW10      29.87R
PHILADELPHIA   LGT RAIN  72  62  71 N13       29.86R
$$



USA.gov is the U.S. government's official web portal to all federal, state and local government web resources and services.